• In Uzbekistan
  • List of Countries
  • For 7 days
  • Water Temperature
  • Satellite Maps
  • Weather Map
  • Weather Widgets
  • user-avatar
    Login

    Hourly Weather Río Gallegos

    Today, 9 December, Friday

    Time Temperature Precipitation Wind Pressure Humidity
    00:00 +7°C° 0 mm 8 mps 752 mmHg 62%
    01:00 +8°C° 0 mm 7 mps 751 mmHg 64%
    02:00 +7°C° 0 mm 8 mps 751 mmHg 63%
    03:00 +7°C° 0 mm 8 mps 751 mmHg 63%
    04:00 +7°C° 0 mm 9 mps 751 mmHg 62%
    05:00 +7°C° 0 mm 10 mps 751 mmHg 60%
    06:00 +8°C° 0 mm 11 mps 751 mmHg 57%
    07:00 +8°C° 0 mm 12 mps 750 mmHg 55%
    08:00 +9°C° 0 mm 11 mps 750 mmHg 53%
    09:00 +9°C° 0 mm 11 mps 750 mmHg 52%
    10:00 +9°C° 0 mm 11 mps 749 mmHg 50%
    11:00 +11°C° 0 mm 11 mps 749 mmHg 49%
    12:00 +11°C° 0 mm 11 mps 749 mmHg 48%
    13:00 +12°C° 0 mm 11 mps 748 mmHg 46%
    14:00 +12°C° 0 mm 11 mps 748 mmHg 47%
    15:00 +12°C° 0 mm 11 mps 748 mmHg 47%
    16:00 +11°C° 0 mm 11 mps 748 mmHg 48%
    17:00 +11°C° 0 mm 10 mps 747 mmHg 51%
    18:00 +10°C° 0 mm 9 mps 747 mmHg 55%
    19:00 +8°C° 0 mm 9 mps 747 mmHg 58%
    20:00 +9°C° 0 mm 8 mps 747 mmHg 61%
    21:00 +8°C° 0 mm 7 mps 747 mmHg 64%
    22:00 +8°C° 0 mm 6 mps 747 mmHg 66%
    23:00 +8°C° 0.1 mm 6 mps 747 mmHg 67%

    Tomorrow, 10 December, Saturday

    Time Temperature Precipitation Wind Pressure Humidity
    00:00 +7°C° 0.1 mm 6 mps 747 mmHg 68%
    01:00 +7°C° 0.1 mm 5 mps 746 mmHg 68%
    02:00 +7°C° 0.1 mm 6 mps 746 mmHg 68%
    03:00 +7°C° 0.1 mm 6 mps 746 mmHg 67%
    04:00 +6°C° 0.1 mm 7 mps 746 mmHg 67%
    05:00 +6°C° 0.1 mm 8 mps 746 mmHg 64%
    06:00 +7°C° 0.1 mm 8 mps 746 mmHg 61%
    07:00 +8°C° 0.1 mm 9 mps 746 mmHg 58%
    08:00 +8°C° 0.1 mm 10 mps 746 mmHg 55%
    09:00 +9°C° 0.1 mm 10 mps 745 mmHg 51%
    10:00 +11°C° 0.1 mm 11 mps 745 mmHg 48%
    11:00 +11°C° 0.1 mm 11 mps 745 mmHg 47%
    12:00 +12°C° 0.1 mm 12 mps 745 mmHg 46%
    13:00 +13°C° 0.1 mm 12 mps 745 mmHg 45%
    14:00 +12°C° 0.1 mm 12 mps 745 mmHg 48%
    15:00 +12°C° 0.1 mm 13 mps 746 mmHg 51%
    16:00 +10°C° 0.1 mm 13 mps 746 mmHg 54%
    17:00 +10°C° 0 mm 12 mps 746 mmHg 55%
    18:00 +9°C° 0 mm 12 mps 746 mmHg 57%
    19:00 +9°C° 0 mm 11 mps 747 mmHg 59%
    20:00 +8°C° 0 mm 10 mps 747 mmHg 61%
    21:00 +8°C° 0 mm 10 mps 747 mmHg 64%
    22:00 +7°C° 0 mm 9 mps 747 mmHg 66%
    23:00 +7°C° 0 mm 9 mps 747 mmHg 67%

    Day after tomorrow, 11 December, Sunday

    Time Temperature Precipitation Wind Pressure Humidity
    00:00 +6°C° 0 mm 8 mps 747 mmHg 68%
    01:00 +6°C° 0 mm 8 mps 747 mmHg 69%
    02:00 +6°C° 0 mm 8 mps 747 mmHg 68%
    03:00 +6°C° 0 mm 7 mps 746 mmHg 68%
    04:00 +7°C° 0 mm 6 mps 746 mmHg 67%
    05:00 +7°C° 0.3 mm 6 mps 745 mmHg 67%
    06:00 +7°C° 0.3 mm 5 mps 745 mmHg 67%
    07:00 +7°C° 0.3 mm 5 mps 744 mmHg 67%
    08:00 +8°C° 0.1 mm 5 mps 743 mmHg 64%
    09:00 +9°C° 0.1 mm 5 mps 742 mmHg 60%
    10:00 +10°C° 0.1 mm 5 mps 741 mmHg 57%
    11:00 +10°C° 0.3 mm 5 mps 740 mmHg 60%
    12:00 +10°C° 0.3 mm 6 mps 739 mmHg 62%
    13:00 +10°C° 0.3 mm 7 mps 739 mmHg 65%
    14:00 +10°C° 0.1 mm 6 mps 738 mmHg 66%
    15:00 +10°C° 0.1 mm 5 mps 738 mmHg 67%
    16:00 +10°C° 0.1 mm 5 mps 737 mmHg 68%
    17:00 +10°C° 0.2 mm 4 mps 737 mmHg 71%
    18:00 +10°C° 0.2 mm 4 mps 738 mmHg 75%
    19:00 +9°C° 0.2 mm 3 mps 738 mmHg 78%
    20:00 +9°C° 0.7 mm 3 mps 739 mmHg 81%
    21:00 +7°C° 0.7 mm 4 mps 739 mmHg 84%
    22:00 +7°C° 0.7 mm 4 mps 740 mmHg 86%
    23:00 +7°C° 0.6 mm 5 mps 740 mmHg 84%

    12 December, Monday

    Time Temperature Precipitation Wind Pressure Humidity
    00:00 +5°C° 0.6 mm 7 mps 741 mmHg 82%
    01:00 +5°C° 0.6 mm 8 mps 741 mmHg 80%
    02:00 +5°C° 0 mm 9 mps 742 mmHg 81%
    03:00 +3°C° 0 mm 9 mps 742 mmHg 81%
    04:00 +3°C° 0 mm 10 mps 743 mmHg 81%
    05:00 +4°C° 0.1 mm 11 mps 743 mmHg 77%
    06:00 +5°C° 0.1 mm 12 mps 744 mmHg 73%
    07:00 +7°C° 0.1 mm 13 mps 744 mmHg 69%
    08:00 +7°C° 0.1 mm 13 mps 745 mmHg 66%
    09:00 +6°C° 0.1 mm 14 mps 745 mmHg 63%
    10:00 +8°C° 0.1 mm 14 mps 746 mmHg 60%
    11:00 +8°C° 0.1 mm 14 mps 747 mmHg 58%
    12:00 +9°C° 0.1 mm 14 mps 747 mmHg 55%
    13:00 +9°C° 0.1 mm 14 mps 748 mmHg 52%
    14:00 +9°C° 0.1 mm 14 mps 749 mmHg 51%
    15:00 +9°C° 0.1 mm 14 mps 750 mmHg 50%
    16:00 +8°C° 0.1 mm 14 mps 751 mmHg 50%
    17:00 +7°C° 0 mm 13 mps 752 mmHg 51%
    18:00 +7°C° 0 mm 12 mps 753 mmHg 53%
    19:00 +5°C° 0 mm 12 mps 754 mmHg 55%
    20:00 +4°C° 0 mm 11 mps 755 mmHg 57%
    21:00 +3°C° 0 mm 10 mps 756 mmHg 60%
    22:00 +3°C° 0 mm 9 mps 757 mmHg 62%
    23:00 +2°C° 0 mm 8 mps 757 mmHg 64%

    13 December, Tuesday

    Time Temperature Precipitation Wind Pressure Humidity
    00:00 +2°C° 0 mm 8 mps 757 mmHg 66%
    01:00 +2°C° 0 mm 7 mps 757 mmHg 69%
    02:00 +2°C° 0 mm 7 mps 758 mmHg 70%
    03:00 +2°C° 0 mm 6 mps 758 mmHg 71%
    04:00 +1°C° 0 mm 6 mps 758 mmHg 73%
    05:00 +3°C° 0 mm 6 mps 758 mmHg 67%
    06:00 +4°C° 0 mm 7 mps 758 mmHg 61%
    07:00 +5°C° 0 mm 7 mps 758 mmHg 55%
    08:00 +7°C° 0 mm 6 mps 758 mmHg 55%
    09:00 +8°C° 0 mm 6 mps 758 mmHg 54%
    10:00 +8°C° 0 mm 5 mps 758 mmHg 53%
    11:00 +9°C° 0 mm 5 mps 758 mmHg 54%
    12:00 +11°C° 0 mm 4 mps 757 mmHg 54%
    13:00 +11°C° 0 mm 4 mps 757 mmHg 54%
    14:00 +12°C° 0.1 mm 4 mps 757 mmHg 55%
    15:00 +12°C° 0.1 mm 4 mps 757 mmHg 55%
    16:00 +12°C° 0.1 mm 4 mps 756 mmHg 55%
    17:00 +12°C° 0.1 mm 3 mps 756 mmHg 59%
    18:00 +11°C° 0.1 mm 3 mps 756 mmHg 63%
    19:00 +11°C° 0.1 mm 3 mps 756 mmHg 67%
    20:00 +10°C° 0 mm 4 mps 756 mmHg 68%
    21:00 +10°C° 0 mm 4 mps 756 mmHg 70%
    22:00 +8°C° 0 mm 5 mps 756 mmHg 72%
    23:00 +8°C° 0 mm 6 mps 755 mmHg 71%

    14 December, Wednesday

    Time Temperature Precipitation Wind Pressure Humidity
    00:00 +8°C° 0 mm 6 mps 755 mmHg 70%
    01:00 +6°C° 0 mm 7 mps 754 mmHg 69%
    02:00 +8°C° 0 mm 7 mps 753 mmHg 68%
    03:00 +7°C° 0 mm 8 mps 753 mmHg 68%
    04:00 +7°C° 0 mm 8 mps 752 mmHg 67%
    05:00 +9°C° 0 mm 8 mps 752 mmHg 64%
    06:00 +10°C° 0 mm 8 mps 751 mmHg 60%
    07:00 +11°C° 0 mm 8 mps 751 mmHg 56%
    08:00 +14°C° 0 mm 7 mps 750 mmHg 52%
    09:00 +16°C° 0 mm 7 mps 749 mmHg 48%
    10:00 +17°C° 0 mm 7 mps 749 mmHg 44%
    11:00 +17°C° 0 mm 6 mps 748 mmHg 44%
    12:00 +17°C° 0 mm 6 mps 747 mmHg 44%
    13:00 +17°C° 0 mm 5 mps 747 mmHg 44%
    14:00 +17°C° 0 mm 5 mps 746 mmHg 46%
    15:00 +18°C° 0 mm 4 mps 745 mmHg 48%
    16:00 +18°C° 0 mm 4 mps 745 mmHg 50%
    17:00 +17°C° 0 mm 4 mps 744 mmHg 55%
    18:00 +16°C° 0 mm 3 mps 743 mmHg 60%
    19:00 +14°C° 0 mm 3 mps 743 mmHg 65%
    20:00 +14°C° 0 mm 3 mps 743 mmHg 67%
    21:00 +14°C° 0 mm 2 mps 742 mmHg 68%
    22:00 +13°C° 0 mm 2 mps 742 mmHg 70%
    23:00 +13°C° 0 mm 3 mps 741 mmHg 67%
    Show more